Rbgn^[z[y[W
メイン
   新天体発見情報
     Comet C/2024 J4 (Lemmon)
投稿するにはまず登録を

スレッド表示 | 新しいものから 前のトピック | 次のトピック | 下へ
投稿者 スレッド
佐藤裕久
投稿日時: 2024-6-17 18:07
モデレータ
登録日: 2005-6-12
居住地: 日本
投稿: 2684
オンライン
Comet C/2024 J4 (Lemmon)

K. W. Wierzchosが、5月11日、Mt Lemmon サーベイの1.5-m 反射望遠鏡で発見した小惑星状天体が
小惑星センターのNEOCPとPCCPのwebpageに投稿された。
Wierzchosは、この天体を地球近傍天体候補としてフラグを立て、NEOCPに投稿した。
佐藤英貴氏(東京都文京区,5月12.4日UT、120-秒露出10枚のスタック, 0.43-m f/6.8 アストログラフ, 
Utah Desert Remote 天文台, Beryl Junction 近郊, ユタ州, 米国, 遠隔操作)の観測では、恒星状に
しか見えなかった、5".7の円形範囲で測定した光度は19.8等であった。
A. F. Tubbioloの報告によると、5月17.5日、Kitt PeakにあるSpacewatchとSteward天文台のBok 2.3-m 
f/9反射望遠鏡による、1".2のシーイングで得た広帯域60-秒CCD露出18枚のスタックでは、p.a. 140°
に約18"のコマと尾が見えた。さらに5月28.34-28.36日に得た追加画像によると、引き締まったコマと
p.a. 110-170°にわたって約18"の広い尾が見えた。

彗星機能の報告は次のとおり、

OC   Date        Reporter           Coma    Tail    PA          Exposures
695  2024-05-19  A. Tubbiolo        6"       15"    110-120        9x60s
695  2024-05-28  A. Tubbiolo        6"       18"    110-169       30x60s

発見位置は次のとおり、

     2024 UT             R.A. (2000) Decl.       Mag.   Observer
     May  11.41593   19 03 43.51   +44 49 07.2   20.1   Wierzchos
          11.42072   19 03 43.25   +44 49 09.9   20.1     "
          11.42553   19 03 42.96   +44 49 11.7   20.4     "

MPCの楕円軌道要素、位置推算表は次のとおり、

Orbital elements:
    C/2024 J4 (Lemmon)                                                          
Epoch 2024 Mar. 31.0 TT = JDT 2460400.5                                         
T 2025 Apr. 27.73030 TT                                 Rudenko                 
q   5.6884803            (2000.0)            P               Q                  
z  +0.0010205      Peri.  128.04847     -0.46100729     -0.83741116             
 +/-0.0003426      Node    19.33753     -0.78017725     +0.22481167             
e   0.9941949      Incl.  117.53540     +0.42284244     -0.49819902             
From 93 observations 2024 May 11-28, mean residual 0".3.                        
                                                                                
Ephemeris:
Date    TT    R. A. (2000) Decl.     Delta      r    Elong.  Phase   m1
2024 04 30    19 13 53.1 +43 27 01   6.1147  6.2492    93.0     9.3  19.9
...
2024 05 15    18 59 59.9 +45 12 21   5.9524  6.2063    99.9     9.2  19.8
...
2024 05 23    18 50 47.5 +45 58 14   5.8768  6.1840   103.0     9.2  19.8
...
2024 05 29    18 43 08.4 +46 26 10   5.8264  6.1676   105.0     9.1  19.7
2024 05 30    18 41 48.4 +46 30 13   5.8186  6.1648   105.3     9.1  19.7
2024 05 31    18 40 27.6 +46 34 04   5.8109  6.1621   105.6     9.1  19.7
...
2024 06 06    18 32 04.7 +46 53 05   5.7686  6.1460   107.2     9.1  19.7
...
2024 06 14    18 20 16.3 +47 06 29   5.7228  6.1249   108.7     9.0  19.7
...
2024 06 29    17 57 16.7 +46 51 18   5.6716  6.0864   109.5     9.1  19.6

(MPEC 2024-K128、CBET 5399)

スレッド表示 | 新しいものから 前のトピック | 次のトピック | トップ

投稿するにはまず登録を
 
© 1999 Tsutomu Seki.